When you browse on this site, cookies collect data to enhance your experience and personalize the content and advertising you see.
Visit our Privacy Policy to learn more. By continuing to use the site, you agree to this use of cookies and data.
  • In Lithuania
  • List of Countries
  • For 7 days
  • Water Temperature
  • Satellite Maps
  • Weather Map
  • Weather Widgets
  • user-avatar
    Login

    Hourly Weather Barcelona

    Today, 15 December, Saturday

    Time Temperature Precipitation Wind Pressure Humidity
    00:00 +23°C° 0 mm 4 mps 761 mmHg 88%
    01:00 +23°C° 0 mm 4 mps 761 mmHg 89%
    02:00 +24°C° 0 mm 3 mps 761 mmHg 90%
    03:00 +22°C° 0 mm 3 mps 761 mmHg 90%
    04:00 +22°C° 0 mm 3 mps 761 mmHg 91%
    05:00 +22°C° 0 mm 3 mps 761 mmHg 91%
    06:00 +24°C° 0 mm 2 mps 762 mmHg 87%
    07:00 +25°C° 0 mm 2 mps 762 mmHg 82%
    08:00 +26°C° 0 mm 2 mps 763 mmHg 77%
    09:00 +29°C° 0 mm 2 mps 763 mmHg 65%
    10:00 +32°C° 0 mm 2 mps 763 mmHg 53%
    11:00 +36°C° 0 mm 2 mps 763 mmHg 41%
    12:00 +36°C° 0 mm 3 mps 762 mmHg 41%
    13:00 +36°C° 0 mm 3 mps 762 mmHg 41%
    14:00 +36°C° 0 mm 4 mps 761 mmHg 40%
    15:00 +35°C° 0 mm 4 mps 760 mmHg 45%
    16:00 +34°C° 0 mm 5 mps 760 mmHg 50%
    17:00 +33°C° 0 mm 5 mps 759 mmHg 55%
    18:00 +30°C° 0 mm 5 mps 760 mmHg 61%
    19:00 +29°C° 0 mm 5 mps 760 mmHg 67%
    20:00 +27°C° 0 mm 5 mps 760 mmHg 72%
    21:00 +26°C° 0 mm 5 mps 761 mmHg 74%
    22:00 +26°C° 0 mm 5 mps 761 mmHg 76%
    23:00 +25°C° 0 mm 4 mps 761 mmHg 77%

    Tomorrow, 16 December, Sunday

    Time Temperature Precipitation Wind Pressure Humidity
    00:00 +25°C° 0 mm 4 mps 761 mmHg 80%
    01:00 +23°C° 0 mm 4 mps 761 mmHg 82%
    02:00 +24°C° 0 mm 3 mps 761 mmHg 84%
    03:00 +22°C° 0 mm 3 mps 761 mmHg 86%
    04:00 +22°C° 0 mm 3 mps 761 mmHg 87%
    05:00 +23°C° 0 mm 2 mps 761 mmHg 88%
    06:00 +24°C° 0 mm 2 mps 761 mmHg 82%
    07:00 +26°C° 0 mm 2 mps 762 mmHg 77%
    08:00 +27°C° 0 mm 2 mps 762 mmHg 71%
    09:00 +30°C° 0 mm 2 mps 762 mmHg 62%
    10:00 +32°C° 0 mm 2 mps 762 mmHg 53%
    11:00 +36°C° 0 mm 2 mps 762 mmHg 44%
    12:00 +35°C° 0 mm 2 mps 762 mmHg 47%
    13:00 +35°C° 0 mm 3 mps 761 mmHg 49%
    14:00 +34°C° 0 mm 3 mps 760 mmHg 51%
    15:00 +33°C° 0 mm 3 mps 759 mmHg 55%
    16:00 +33°C° 0 mm 4 mps 759 mmHg 59%
    17:00 +32°C° 0 mm 4 mps 758 mmHg 63%
    18:00 +30°C° 0.1 mm 4 mps 759 mmHg 68%
    19:00 +28°C° 0.1 mm 5 mps 759 mmHg 74%
    20:00 +27°C° 0.1 mm 5 mps 760 mmHg 79%
    21:00 +26°C° 0.1 mm 5 mps 760 mmHg 80%
    22:00 +26°C° 0.1 mm 5 mps 760 mmHg 82%
    23:00 +26°C° 0.1 mm 4 mps 760 mmHg 83%

    Day after tomorrow, 17 December, Monday

    Time Temperature Precipitation Wind Pressure Humidity
    00:00 +25°C° 0 mm 4 mps 760 mmHg 84%
    01:00 +25°C° 0 mm 4 mps 760 mmHg 84%
    02:00 +25°C° 0 mm 3 mps 760 mmHg 85%
    03:00 +24°C° 0 mm 3 mps 760 mmHg 86%
    04:00 +24°C° 0 mm 3 mps 760 mmHg 87%
    05:00 +24°C° 0 mm 3 mps 760 mmHg 88%
    06:00 +25°C° 0 mm 2 mps 760 mmHg 82%
    07:00 +26°C° 0 mm 2 mps 761 mmHg 77%
    08:00 +28°C° 0 mm 2 mps 761 mmHg 72%
    09:00 +30°C° 0 mm 2 mps 761 mmHg 64%
    10:00 +34°C° 0 mm 2 mps 761 mmHg 56%
    11:00 +36°C° 0 mm 2 mps 761 mmHg 48%
    12:00 +36°C° 0.1 mm 2 mps 760 mmHg 48%
    13:00 +36°C° 0.1 mm 3 mps 759 mmHg 49%
    14:00 +36°C° 0.1 mm 3 mps 759 mmHg 50%
    15:00 +35°C° 0 mm 3 mps 758 mmHg 53%
    16:00 +34°C° 0 mm 4 mps 758 mmHg 57%
    17:00 +33°C° 0 mm 4 mps 757 mmHg 60%
    18:00 +30°C° 0 mm 4 mps 758 mmHg 66%
    19:00 +29°C° 0 mm 4 mps 758 mmHg 72%
    20:00 +27°C° 0 mm 4 mps 759 mmHg 78%
    21:00 +27°C° 0.1 mm 4 mps 759 mmHg 79%
    22:00 +27°C° 0.1 mm 4 mps 760 mmHg 80%
    23:00 +26°C° 0.1 mm 4 mps 760 mmHg 81%

    18 December, Tuesday

    Time Temperature Precipitation Wind Pressure Humidity
    00:00 +26°C° 0.1 mm 4 mps 760 mmHg 81%
    01:00 +25°C° 0.1 mm 4 mps 759 mmHg 82%
    02:00 +25°C° 0.1 mm 3 mps 759 mmHg 83%
    03:00 +25°C° 0 mm 3 mps 759 mmHg 84%
    04:00 +25°C° 0 mm 3 mps 759 mmHg 85%
    05:00 +24°C° 0 mm 2 mps 759 mmHg 86%
    06:00 +26°C° 0 mm 2 mps 759 mmHg 81%
    07:00 +27°C° 0 mm 2 mps 760 mmHg 76%
    08:00 +28°C° 0 mm 2 mps 761 mmHg 72%
    09:00 +31°C° 0 mm 2 mps 761 mmHg 64%
    10:00 +34°C° 0 mm 2 mps 761 mmHg 56%
    11:00 +36°C° 0 mm 2 mps 761 mmHg 49%
    12:00 +36°C° 0 mm 3 mps 760 mmHg 50%
    13:00 +35°C° 0 mm 3 mps 759 mmHg 52%
    14:00 +35°C° 0 mm 4 mps 758 mmHg 53%
    15:00 +34°C° 0.1 mm 4 mps 758 mmHg 56%
    16:00 +34°C° 0.1 mm 4 mps 757 mmHg 59%
    17:00 +33°C° 0.1 mm 5 mps 757 mmHg 62%
    18:00 +30°C° 0 mm 5 mps 758 mmHg 68%
    19:00 +29°C° 0 mm 5 mps 758 mmHg 74%
    20:00 +28°C° 0 mm 5 mps 759 mmHg 80%
    21:00 +27°C° 0.2 mm 5 mps 759 mmHg 81%
    22:00 +27°C° 0.2 mm 5 mps 759 mmHg 83%
    23:00 +26°C° 0.2 mm 4 mps 760 mmHg 85%

    19 December, Wednesday

    Time Temperature Precipitation Wind Pressure Humidity
    00:00 +26°C° 0.5 mm 4 mps 759 mmHg 86%
    01:00 +26°C° 0.5 mm 4 mps 759 mmHg 87%
    02:00 +25°C° 0.5 mm 4 mps 759 mmHg 88%
    03:00 +25°C° 0.3 mm 3 mps 759 mmHg 89%
    04:00 +25°C° 0.3 mm 3 mps 759 mmHg 90%
    05:00 +25°C° 0.3 mm 3 mps 759 mmHg 90%
    06:00 +26°C° 0 mm 2 mps 759 mmHg 84%
    07:00 +27°C° 0 mm 2 mps 760 mmHg 79%
    08:00 +28°C° 0 mm 2 mps 761 mmHg 73%
    09:00 +31°C° 0 mm 2 mps 761 mmHg 65%
    10:00 +34°C° 0 mm 2 mps 761 mmHg 57%
    11:00 +36°C° 0 mm 2 mps 761 mmHg 49%
    12:00 +36°C° 0 mm 2 mps 760 mmHg 50%
    13:00 +36°C° 0 mm 3 mps 759 mmHg 51%
    14:00 +35°C° 0 mm 3 mps 758 mmHg 52%
    15:00 +35°C° 0 mm 4 mps 757 mmHg 56%
    16:00 +34°C° 0 mm 4 mps 757 mmHg 59%
    17:00 +33°C° 0 mm 5 mps 757 mmHg 62%
    18:00 +30°C° 0.1 mm 5 mps 757 mmHg 68%
    19:00 +29°C° 0.1 mm 5 mps 758 mmHg 73%
    20:00 +28°C° 0.1 mm 5 mps 758 mmHg 78%
    21:00 +27°C° 0.1 mm 5 mps 759 mmHg 80%
    22:00 +27°C° 0.1 mm 4 mps 759 mmHg 81%
    23:00 +26°C° 0.1 mm 4 mps 759 mmHg 83%

    20 December, Thursday

    Time Temperature Precipitation Wind Pressure Humidity
    00:00 +26°C° 0.2 mm 4 mps 759 mmHg 84%
    01:00 +26°C° 0.2 mm 3 mps 758 mmHg 85%
    02:00 +25°C° 0.2 mm 3 mps 758 mmHg 86%
    03:00 +25°C° 0 mm 3 mps 758 mmHg 87%
    04:00 +25°C° 0 mm 2 mps 758 mmHg 88%
    05:00 +25°C° 0 mm 2 mps 758 mmHg 89%
    06:00 +26°C° 0 mm 2 mps 759 mmHg 83%
    07:00 +27°C° 0 mm 2 mps 760 mmHg 78%
    08:00 +29°C° 0 mm 2 mps 760 mmHg 72%
    09:00 +31°C° 0 mm 2 mps 760 mmHg 64%
    10:00 +34°C° 0 mm 2 mps 760 mmHg 57%
    11:00 +36°C° 0 mm 3 mps 760 mmHg 49%
    12:00 +36°C° 0.1 mm 3 mps 759 mmHg 52%
    13:00 +35°C° 0.1 mm 3 mps 759 mmHg 55%
    14:00 +34°C° 0.1 mm 4 mps 758 mmHg 59%
    15:00 +34°C° 0 mm 4 mps 757 mmHg 60%
    16:00 +33°C° 0 mm 4 mps 757 mmHg 61%
    17:00 +33°C° 0 mm 5 mps 757 mmHg 61%
    18:00 +30°C° 0 mm 5 mps 757 mmHg 67%
    19:00 +29°C° 0 mm 5 mps 758 mmHg 73%
    20:00 +27°C° 0 mm 5 mps 758 mmHg 79%
    21:00 +27°C° 0 mm 4 mps 759 mmHg 81%
    22:00 +27°C° 0 mm 4 mps 759 mmHg 82%
    23:00 +26°C° 0 mm 4 mps 759 mmHg 83%
    Show more